{"data":{"norad_id":37743,"intl_designator":"2011-033E","name":"GLOBALSTAR M081","alt_names":[],"object_type":"PAYLOAD","status":"ACTIVE","operator":null,"country":"GLOB","launch_date":"2011-07-13","launch_site_code":"TYMSC","launch_vehicle":null,"mission":null,"orbit_class":"UNKNOWN","rcs_meters":4.86,"size_class":null,"mass_kg":null,"dimensions":null,"purposes":["comms"],"wikipedia_slug":null,"has_3d_model":false,"image_url":null,"decayed_at":null,"tle_current":{"epoch":"2026-05-25T02:49:57.385920Z","epoch_age_seconds":75576,"freshness":"FRESH","line1":"1 37743U 11033E   26145.11802530 -.00000099  00000+0  28251-4 0  9990","line2":"2 37743  51.9962 265.8813 0000554 118.8475  52.3110 12.62264447687022","mean_motion":12.62264447,"eccentricity":5.54e-5,"inclination_deg":51.9962,"raan_deg":265.8813,"arg_perigee_deg":118.8475,"mean_anomaly_deg":52.311,"bstar":2.8251e-5,"rev_number":68702,"period_min":114.08069073184,"perigee_km":1413.1801107188,"apogee_km":1414.0434364829,"semimajor_km":7791.7487736008,"source":"CELESTRAK","updated_at":"2026-05-25T13:38:23.043401Z"}}}